www.pogodaiklimat.ru

Погода и климат >> Архив погоды >> Россия >> город Москва >> Москва


АРХИВ ПОГОДЫ в Москве

Время (UTC), дата Ветер
(напр.,м/с)
 
Видим.   Явления Облачность Т
(С)
Тd
(С)
f
(%)
Тe
(С)
Тes
(С)
Комфортность P
(гПа)
Po
(гПа)
Тmin
(С)
Tmax
(С)
R
(мм)
R24
(мм)
S
(см)
12 15.06 Ю 1 10 км 4/0
[Ci sp]
+20.6 +0.1 25 +22 +35 комфорт 1019.6 1001.1
15 15.06 Ю 2 10 км 8/0
[Cs]
+20.4 +1.6 29 +21 +24 комфорт 1019.0 1000.5
18 15.06 штиль 0 10 км 8/0
[Cs]
+17.5 +1.8 35 +18 +18 по сезону 1019.2 1000.5 +21.6
21 15.06 штиль 0 н/о ясно +11.7 +6.0 68 +11 +11 прохладно 1020.8 1001.8
00 16.06 штиль 0 10 км 6/0
[Cs]
+8.8 +6.3 84 +8 +8 холодно 1021.6 1002.3
03 16.06 штиль 0 10 км 10/0
[Cs]
+12.4 +5.7 64 +12 +14 прохладно 1022.2 1003.1 +8.4
06 16.06 ЮВ 1 10 км 8/0
[Cs]
+20.1 +3.9 34 +22 +31 комфорт 1022.1 1003.5 +8.4
09 16.06 ЮВ 1 10 км ясно +21.9 +2.7 28 +22 +40 комфорт 1021.5 1003.1
12 16.06 В 1 10 км 3/3 1000 м
[Cu hum]
+23.7 +3.8 27 +23 +33 комфорт 1020.5 1002.2
15 16.06 В 1 10 км 3/3 1000 м
[Cu hum]
+23.2 +3.9 28 +23 +26 комфорт 1019.5 1001.2
18 16.06 штиль 0 10 км 6/0
[Ci fib]
+18.3 +7.4 49 +18 +18 по сезону 1020.0 1001.4 +24.0
21 16.06 штиль 0 н/о 3/0
[Ci fib]
+13.8 +8.7 71 +14 +14 по сезону 1021.0 1002.1
00 17.06 штиль 0 10 км ясно +11.4 +8.7 83 +11 +11 прохладно 1021.3 1002.2
03 17.06 штиль 0 10 км ясно +13.7 +10.6 82 +13 +15 прохладно 1021.8 1002.9 +10.9
06 17.06 В 1 10 км ясно +22.1 +7.8 40 +23 +34 комфорт 1020.9 1002.5 +10.9
09 17.06 СВ 1 10 км 3/3 1000 м
[Cu hum]
+23.4 +5.7 32 +24 +37 комфорт 1020.1 1001.7
12 17.06 СВ 1 10 км 6/6 1000 м
[Cu hum]
+24.2 +6.2 31 +24 +30 комфорт 1018.9 1000.7
15 17.06 В 1 10 км 8/8 1000 м
[Cu hum]
+24.7 +5.8 30 +25 +25 комфорт 1018.0 999.8
18 17.06 штиль 0 10 км 8/3 600 м
[Sc Ci fib]
+19.9 +9.9 52 +21 +21 комфорт 1018.1 999.6 +25.6
21 17.06 штиль 0 н/о ясно +15.1 +10.8 75 +15 +15 по сезону 1018.6 999.8
00 18.06 штиль 0 10 км ясно +13.4 +10.7 84 +13 +13 по сезону 1019.0 1000.1
03 18.06 штиль 0 10 км ясно +15.9 +12.8 82 +16 +18 по сезону 1018.4 999.7 +12.3
06 18.06 В 1 10 км ясно +24.6 +8.0 35 +25 +36 комфорт 1017.3 999.1 +12.3
09 18.06 З 1 10 км 6/6 600 м
[Cu hum]
+25.6 +7.4 31 +26 +33 жарко 1016.6 998.5
12 18.06 С 1 10 км 4/4 600 м
[Cu hum]
+26.8 +6.6 28 +26 +35 жарко 1015.6 997.6
15 18.06 ЮЗ 1 10 км 3/3 600 м
[Sc diur, vesp]
+27.2 +6.8 27 +27 +29 жарко 1014.3 996.3
18 18.06 штиль 0 10 км 1/1 600 м
[Sc diur, vesp]
+21.1 +11.3 54 +23 +23 комфорт 1014.3 996.0 +27.8
21 18.06 штиль 0 н/о ясно +17.1 +11.5 70 +17 +17 по сезону 1014.6 996.0
00 19.06 штиль 0 10 км 4/3 600 м
[Sc Ac trans]
+16.7 +12.6 77 +17 +17 тепло 1014.4 995.8
03 19.06 штиль 0 10 км 9/9 600 м
[Sc]
+19.8 +14.8 73 +22 +22 комфорт 1013.8 995.5 +15.9
06 19.06 штиль 0 10 км 10/8 600 м
[Cb cap Ac trans Ci fib]
+24.6 +15.7 58 +28 +29 душно 1013.0 994.9 +15.9
09 19.06 СЗ 1 10 км 9/9 600 м
[Cu Sc]
+23.8 +14.7 57 +27 +28 жарко 1012.3 994.2
12 19.06 З 1 10 км 6/6 600 м
[Cu med, cong]
+27.4 +10.0 34 +28 +34 жарко 1010.6 992.7
15 19.06 ЮЗ 1 10 км слабый ливневой дождь 8/6 600 м
[Cb calv Ci fib]
+19.9 +16.8 82 +24 +25 комфорт 1010.4 992.1 4
18 19.06 штиль 0 4000 м дымка {ливн. осадки} 9/0
[Ac cast Ci]
+18.6 +16.8 89 +19 +19 по сезону 1009.3 990.9 +28.1 4
21 19.06 ЮЗ 1 н/о 9/0
[Ac trans Ci]
+19.1 +14.9 77 +22 +22 комфорт 1008.1 989.8
00 20.06 З 1 10 км 9/0
[Ac trans Ci fib]
+18.9 +12.1 65 +21 +21 комфорт 1007.2 988.9
03 20.06 СЗ 2
{11}
10 км 8/5 600 м
[Sc Ac trans]
+15.7 +7.0 56 +16 +16 по сезону 1009.7 991.1 +15.7
06 20.06 З 1 10 км 4/4 600 м
[Cu hum]
+17.9 +8.3 53 +19 +26 по сезону 1010.2 991.7 +15.6
09 20.06 СЗ 2 10 км 3/3 600 м
[Cu hum]
+20.9 +3.8 32 +22 +33 комфорт 1009.8 991.5
12 20.06 СЗ 2 10 км 6/6 600 м
[Cu med, cong]
+21.6 +3.1 30 +22 +26 комфорт 1008.9 990.6
15 20.06 СЗ 2
{11}
10 км 5/5 600 м
[Cu hum]
+21.8 +4.1 31 +22 +24 комфорт 1008.5 990.3
18 20.06 З 1 10 км 3/3 600 м
[Cu hum Ci fib]
+19.7 +3.5 34 +21 +21 комфорт 1009.8 991.4 +22.3
21 20.06 штиль 0 н/о ясно +12.9 +8.0 72 +13 +13 прохладно 1011.3 992.5
00 21.06 штиль 0 10 км 8/0
[Cs]
+13.8 +6.3 61 +14 +14 по сезону 1011.7 992.9
03 21.06 З 1 10 км 8/8 1000 м
[Sc]
+14.8 +6.9 59 +15 +16 по сезону 1012.1 993.4 +12.3
06 21.06 СЗ 2 10 км 8/8 600 м
[Sc]
+18.5 +4.0 38 +19 +21 по сезону 1012.2 993.7 +12.3
09 21.06 З 2 10 км 8/8 600 м
[Sc]
+21.6 +6.5 38 +22 +25 комфорт 1010.9 992.6
12 21.06 СЗ 2 10 км 10/10 600 м
[Cu Sc]
+22.2 +10.6 48 +24 +24 комфорт 1011.0 992.8
15 21.06 СЗ 1 10 км 8/8 600 м
[Cu Sc]
+23.2 +11.9 49 +26 +27 жарко 1011.1 992.9
18 21.06 штиль 0 10 км 3/3 600 м
[Sc]
+19.7 +13.4 67 +21 +21 комфорт 1011.8 993.4 +23.6
21 21.06 штиль 0 н/о ясно +16.2 +13.6 85 +16 +16 по сезону 1012.3 993.7
00 22.06 штиль 0 4000 м дымка ясно +14.1 +13.1 94 +14 +14 по сезону 1012.1 993.4
03 22.06 штиль 0 4000 м дымка ясно +17.4 +14.4 83 +17 +19 по сезону 1011.7 993.2 +13.9
06 22.06 Ю 2 10 км 6/0
[Ci fib]
+24.9 +11.4 43 +26 +34 жарко 1010.3 992.3 +13.9
09 22.06 Ю 1 10 км 3/1 600 м
[Cu hum Ci fib]
+27.6 +11.3 36 +28 +44 жарко 1009.1 991.2

 

Местоположение метеостанции Москва (город Москва, Россия): широта 55.83 долгота 37.62 высота над уровнем моря 156 м.

В архиве по умолчанию представлена погода в Москве за последнюю неделю. Архивные данные за месяц целиком и за предыдущие месяцы, начиная с января 2011 года, Вы можете получить, выбрав интересующий диапазон дат из раскрывающегося списка и нажав кнопку "Ввод!".


*Определитесь, кто Вы:
робот инопланетянин человек

Внимание! Время в таблицах - всемирное. Для получения местного времени необходимо прибавить поправку, которая в Москве равна 3 ч.

Смотрите также архив погоды в соседних городах и на ближайших метеорологических станциях:

Погода в Москве (Балчуг) (город Москва, Россия) (9 км)
Погода в Москве (Тушино) (город Москва, Россия) (12 км)
Погода в Долгопрудном (Московская область, Россия) (13 км)
Погода в Москве (Строгино) (город Москва, Россия) (14 км)
Погода в Красногорске (Московская область, Россия) (18 км)
Погода в Шереметьево (Московская область, Россия) (20 км)
Погода в Немчиновке (город Москва, Россия) (21 км)
Погода в Железнодорожном АМС (Московская область, Россия) (23 км)
Погода в Луговой (Московская область, Россия) (26 км)
Погода в Пушкино (Московская область, Россия) (26 км)

Пояснения к столбцам:

Ветер - указаны скорость ветра в м/с - средняя за 10 мин, порывы в срок и между сроками (в фигурных скобках) и направление, откуда дует ветер: С - северный, СВ - северо-восточный, В - восточный, ЮВ - юго-восточный, Ю - южный, ЮЗ - юго-западный, З - западный, СЗ - северо-западный.
Видимость - горизонтальная дальность видимости в метрах или километрах. При видимости от 1 до 10 км при отсутствии осадков обычно наблюдается дымка, при ухудшении видимости до 1 км и менее - туман. В сухую погоду видимость может ухудшаться дымом, пылью или мглою.
Явления - указаны атмосферные явления, наблюдавшиеся в срок или в последний час перед сроком; фигурными скобками обозначены явления, наблюдавшиеся между сроками (за 1-3 часа до срока); квадратными скобками обозначены град или гололедные отложения с указанием их диаметра в мм.
Облачность - указаны через наклонную черту общая и нижняя облачность в баллах и высота нижней границы облаков в метрах; квадратными скобками обозначены формы облаков: Ci - перистые, Cs - перисто-слоистые, Cc - перисто-кучевые, Ac - высококучевые, As - высокослоистые, Sc - слоисто-кучевые, Ns - слоисто-дождевые, Cu - кучевые, Cb - кучево-дождевые. Подробнее классификацию облаков см. в Атласе облаков (PDF).
T - Температура воздуха - температура, измеренная на высоте 2 м над землей.
Td - Температура точки росы - температура, при понижении до которой содержащийся в воздухе водяной пар достигнет насыщения.
f - Относительная влажность воздуха - влажноcть воздуха, измеренная на высоте 2 м над землей.
Te - Эффективная температура - температура, которую ощущает одетый по сезону человек в тени. Характеристика душности погоды. При расчете учитывается влияние влажности воздуха и скорости ветра на теплоощущения человека.
Tes - Эффективная температура на солнце - температура, которую ощущает человек, с поправкой на солнечный нагрев. Характеристика знойности погоды. Зависит от высоты солнца над горизонтом, облачности и скорости ветра. Ночью, в пасмурную погоду, а также при ветре 12 м/с и более поправка равна нулю.
P - Атмосферное давление - приведенное к уровню моря атмосферное давление.
Po - Атмосферное давление - измеренное на уровне метеостанции атмосферное давление.
Tmin - Минимальная температура - минимум температуры воздуха на высоте 2 м над землей.
Tmax - Максимальная температура - максимум температуры воздуха на высоте 2 м над землей.
R - Количество осадков - Количество выпавших осадков за период времени, мм. При наведении курсора мыши на число - период времени, за который выпало указанное количество осадков.
R24 - Количество осадков - Количество выпавших осадков за 24 часа, мм.
S - Снежный покров - Высота снежного покрова, см. При наведении курсора мыши на число - состояние снежного покрова и степень покрытия местности в баллах.